Weather in Rossosh

Russia / Voronezh Oblast     50°11′34″N   39°34′35″E
temp.,
°C
wind,
m/s
gust,
m/s
humid.,
%
clouds,
%
prec.,
mm/h
press.,
hPa
HPBL,
m
27 july, tue
tue2700:00+19e22480 0.0 102111
03:00+17e22480 0.0 102211
06:00+17ene22530 0.0 102219
09:00+25e35360 0.0 1022465
12:00+29ene34292 0.0 10201895
15:00+30nne33286 0.0 10192859
18:00+28nne45361 0.0 1019625
21:00+22nne12441 0.0 101911
28 july, wed
wed2800:00+21ene114652 0.0 101911
03:00+19n00551 0.1 101911
06:00+20sw005834 0.0 101811
09:00+27ssw11415 0.0 1018436
12:00+31wsw123085 0.0 10172727
15:00+32w342518 0.0 10153183
18:00+29wnw3536100 0.0 1014293
21:00+24sse114299 0.0 101411
29 july, thu
thu2900:00+22s334447 0.0 101345
03:00+21wsw235799 0.0 101347
06:00+20sw38765 0.6 1012217
09:00+25wsw46620 1.7 1012670
12:00+29wsw564815 0.0 10111792
15:00+31w463870 0.0 10102703
18:00+27nnw23498 0.0 100972
21:00+24ssw115741 0.0 101011
30 july, fri
fri3000:00+24s256754 0.2 1010102
03:00+21sw227892 0.3 101029
06:00+21ssw247836 0.0 1010102
09:00+26wsw345922 0.5 1010521
12:00+31wsw464574 0.0 10091472
15:00+32w564098 0.0 10082521
18:00+24sse5880100 4.3 1008155
21:00+21wnw127871 5.8 100915
31 july, sat
sat3100:00+21wsw228038 0.1 100914
03:00+20w11893 0.4 100911
06:00+21wsw118566 0.0 100935
09:00+23wnw1175100 0.0 1010178
12:00+29nnw22490 0.0 10101076
15:00+32wnw243918 0.0 10092541
18:00+30nw334422 0.0 1009507
21:00+25w11560 0.0 101011